Date,TemperatureHighF,TemperatureAvgF,TemperatureLowF,DewpointHighF,DewpointAvgF,DewpointLowF,HumidityHigh,HumidityAvg,HumidityLow,PressureMaxIn,PressureMinIn,WindSpeedMaxMPH,WindSpeedAvgMPH,GustSpeedMaxMPH,PrecipitationSumIn
2013-1-1,71,61,50,69,58,45,100,91,80,30.16,29.83,26,9,26,0.07
2013-1-2,50,44,41,46,41,37,97,89,75,30.29,30.13,19,9,20,0.24
2013-1-3,50,46,43,40,38,33,83,73,55,30.37,30.26,19,10,20,0.00
2013-1-4,50,48,45,44,41,37,94,76,69,30.41,30.31,21,10,22,0.00
2013-1-5,49,46,45,43,41,40,89,82,74,30.33,30.28,21,9,21,0.00
2013-1-6,59,54,50,51,48,45,90,81,70,30.32,30.23,13,4,14,0.00
2013-1-7,56,52,47,55,50,0,100,93,82,30.28,29.97,13,6,14,0.02
2013-1-8,68,61,55,68,61,55,100,100,97,29.97,29.74,25,7,25,0.11
2013-1-9,69,63,58,69,62,57,100,98,90,30.03,29.79,19,6,19,1.06
2013-1-10,61,57,53,58,53,48,100,88,67,30.10,30.00,17,5,17,0.00
2013-1-11,74,64,57,71,64,54,100,97,84,30.03,29.80,19,6,20,0.00
2013-1-12,74,71,69,73,71,69,100,99,91,29.83,29.62,29,12,29,0.00
2013-1-13,72,55,46,72,47,0,100,77,54,30.08,29.69,24,10,31,0.00
2013-1-14,51,45,42,46,42,3,100,87,69,30.17,30.05,20,9,20,0.00
2013-1-15,46,44,41,46,42,9,100,96,84,30.22,30.02,19,9,20,0.16
2013-1-16,57,47,39,38,25,16,85,47,21,30.36,30.20,21,8,21,0.00
2013-1-17,63,52,42,48,36,22,80,56,44,30.44,30.29,11,5,11,0.00
2013-1-18,59,53,48,54,48,42,99,84,75,30.48,30.29,9,4,10,0.00
2013-1-19,69,59,53,57,54,47,99,86,50,30.30,30.14,13,4,14,0.00
2013-1-20,64,59,54,60,57,54,100,93,83,30.23,30.08,11,4,11,0.00
2013-1-21,65,60,57,61,58,56,99,94,86,30.21,30.09,7,3,7,0.00
2013-1-22,65,60,57,61,58,56,100,95,83,30.28,30.14,9,4,10,0.00
2013-1-23,74,65,59,68,62,59,100,92,73,30.31,30.20,16,6,18,0.00
2013-1-24,77,68,62,67,64,62,100,90,66,30.27,30.12,19,8,19,0.00
2013-1-25,76,68,62,69,65,62,100,91,72,30.15,30.02,24,10,24,0.00
2013-1-26,75,69,65,67,64,5,100,88,69,30.12,30.02,22,9,22,0.00
2013-1-27,74,70,66,72,68,14,100,96,89,30.07,29.95,21,10,22,0.00
2013-1-28,75,71,69,72,70,69,100,96,87,30.06,29.88,26,13,26,0.00
2013-1-29,79,72,68,72,68,45,100,87,39,29.90,29.57,29,14,30,0.00
2013-1-30,68,62,57,50,26,11,53,28,12,30.22,29.73,34,12,34,0.00
2013-1-31,66,57,43,50,34,23,76,45,22,30.31,30.19,20,6,21,0.00
2013-2-1,68,62,57,56,52,45,86,71,46,30.32,30.18,16,6,16,0.00
2013-2-2,72,64,60,63,60,55,97,86,65,30.22,30.13,18,5,18,0.00
2013-2-3,67,63,60,64,62,59,100,95,85,30.27,30.00,18,6,18,0.00
2013-2-4,75,68,64,67,64,60,97,87,72,30.00,29.77,22,8,22,0.00
2013-2-5,77,68,63,71,67,63,100,97,75,29.94,29.83,14,6,14,0.00
2013-2-6,70,66,64,70,66,63,100,99,96,29.98,29.79,21,8,22,0.26
2013-2-7,71,66,64,70,66,63,100,99,94,29.97,29.85,13,5,14,0.00
2013-2-8,69,64,58,66,58,53,100,84,60,30.17,29.97,20,9,21,0.00
2013-2-9,72,68,64,71,67,19,100,96,90,30.04,29.77,24,10,24,0.00
2013-2-10,81,70,66,73,65,54,100,84,64,29.91,29.72,23,10,23,0.00
2013-2-11,66,63,59,63,59,55,100,90,72,29.96,29.85,23,10,23,0.01
2013-2-12,68,62,58,63,60,58,100,93,75,29.98,29.79,16,6,19,0.03
2013-2-13,63,58,52,61,48,40,95,72,56,30.15,29.95,21,7,24,0.00
2013-2-14,63,60,57,52,48,44,75,66,51,30.14,30.02,16,7,16,0.00
2013-2-15,67,62,55,59,53,45,89,73,52,30.29,30.03,25,8,29,0.00
2013-2-16,61,55,49,48,38,28,73,54,34,30.46,30.25,21,8,24,0.00
2013-2-17,68,60,44,60,51,0,94,73,51,30.25,29.98,27,10,27,0.00
2013-2-18,76,69,66,68,64,60,94,85,72,29.99,29.82,25,11,28,0.00
2013-2-19,67,63,61,65,55,4,98,77,58,30.19,29.97,23,12,23,0.00
2013-2-20,72,68,64,70,66,60,99,95,86,30.00,29.66,21,10,24,0.00
2013-2-21,80,72,67,72,66,58,99,83,59,29.79,29.57,27,10,29,0.00
2013-2-22,69,66,60,61,55,48,87,69,50,29.91,29.77,19,8,21,0.00
2013-2-23,69,60,53,59,51,14,89,72,55,30.01,29.85,21,8,21,0.00
2013-2-24,67,64,61,67,63,0,100,96,78,29.89,29.58,15,5,16,0.00
2013-2-25,72,66,56,70,40,13,100,51,12,29.88,29.51,38,14,38,0.01
2013-2-26,74,58,44,53,35,15,85,46,14,30.00,29.84,19,7,21,0.00
2013-2-27,74,62,55,60,50,34,96,67,24,30.16,29.86,19,7,22,0.00
2013-2-28,60,54,49,42,35,29,61,49,33,30.29,30.15,22,12,23,0.00
2013-3-1,67,60,48,51,40,12,73,50,31,30.27,30.11,15,6,16,0.00
2013-3-2,66,57,50,51,39,25,84,53,25,30.39,30.21,23,9,23,0.00
2013-3-3,69,60,46,55,46,36,75,61,43,30.26,29.98,22,9,24,0.00
2013-3-4,78,68,62,64,60,55,92,76,50,29.98,29.74,29,14,32,0.00
2013-3-5,68,64,57,64,50,31,97,65,29,30.28,29.78,36,12,36,0.00
2013-3-6,59,55,48,54,41,7,84,60,39,30.41,30.20,23,9,24,0.00
2013-3-7,67,63,58,64,60,53,96,88,80,30.21,30.08,18,7,18,0.00
2013-3-8,72,69,66,68,66,0,96,90,83,30.10,29.99,22,10,27,0.00
2013-3-9,74,70,68,69,67,65,97,92,81,29.99,29.64,34,14,36,0.00
2013-3-10,74,68,60,70,57,41,100,72,42,30.04,29.57,29,10,32,0.08
2013-3-11,71,62,55,51,38,22,62,44,18,30.15,29.98,20,8,21,0.00
2013-3-12,69,62,51,56,49,42,85,65,48,30.20,30.05,19,7,19,0.00
2013-3-13,66,62,57,61,57,54,100,83,69,30.38,30.19,17,7,17,0.00
2013-3-14,72,66,60,62,58,56,95,78,61,30.36,30.22,18,7,19,0.00
2013-3-15,74,67,60,64,60,58,97,81,61,30.24,30.01,28,9,29,0.00
2013-3-16,75,69,65,67,64,62,96,85,70,30.01,29.78,32,12,32,0.00
2013-3-17,78,71,66,70,68,65,99,90,75,29.80,29.64,23,11,24,0.00
2013-3-18,77,71,68,71,69,67,100,93,76,29.85,29.69,18,7,20,0.00
2013-3-19,74,70,66,71,68,63,100,96,83,29.95,29.79,19,9,19,0.00
2013-3-20,73,68,64,70,61,52,100,79,57,30.11,29.86,32,13,32,0.00
2013-3-21,73,69,64,69,63,60,96,83,66,29.99,29.65,23,9,24,0.00
2013-3-22,79,73,70,73,71,5,100,95,81,29.71,29.61,19,8,19,0.00
2013-3-23,74,71,67,72,70,67,100,97,84,29.67,29.56,13,6,15,0.00
2013-3-24,67,63,56,67,45,25,100,57,23,30.10,29.64,34,11,34,0.01
2013-3-25,59,55,51,40,35,28,66,48,33,30.32,30.09,24,11,24,0.00
2013-3-26,61,57,54,44,38,15,63,49,36,30.43,30.30,20,9,21,0.00
2013-3-27,65,62,55,61,51,41,87,68,57,30.30,30.16,18,8,21,0.00
2013-3-28,72,67,65,65,62,23,94,83,76,30.18,30.10,18,8,18,0.00
2013-3-29,75,70,65,67,65,62,95,86,68,30.14,30.02,24,8,24,0.00
2013-3-30,79,71,67,71,68,65,98,89,68,30.07,29.91,23,8,23,0.00
2013-3-31,78,72,69,72,70,68,100,92,80,29.93,29.76,23,10,23,0.00
2013-4-1,72,70,69,71,70,69,100,99,94,30.00,29.89,20,8,21,0.03
2013-4-2,74,71,70,73,71,70,100,99,96,29.94,29.75,16,8,16,0.04
2013-4-3,73,67,57,71,62,54,100,87,69,30.09,29.77,27,10,27,0.00
2013-4-4,74,63,55,55,51,20,91,69,38,30.16,30.02,19,8,19,0.00
2013-4-5,63,59,50,59,53,47,90,83,73,30.25,30.06,14,8,16,0.00
2013-4-6,75,68,62,65,62,58,91,80,63,30.06,29.87,26,10,28,0.00
2013-4-7,76,71,66,68,66,64,95,84,70,29.91,29.78,27,10,29,0.00
2013-4-8,77,73,70,72,70,68,98,92,80,29.80,29.64,26,11,27,0.00
2013-4-9,80,74,71,74,71,70,98,91,77,29.71,29.56,29,13,33,0.00
2013-4-10,79,69,59,75,66,52,98,90,71,29.82,29.60,26,12,29,0.00
2013-4-11,67,59,50,55,48,42,95,70,48,29.95,29.77,29,9,29,0.20
2013-4-12,70,65,58,64,60,53,96,85,78,29.95,29.84,19,8,22,0.00
2013-4-13,72,70,67,67,65,63,93,86,77,29.92,29.72,23,10,23,0.00
2013-4-14,83,74,67,74,70,66,100,89,69,29.77,29.63,21,8,22,0.00
2013-4-15,82,76,71,73,71,69,99,88,71,29.79,29.68,23,11,24,0.00
2013-4-16,76,74,73,75,73,71,100,96,90,29.85,29.74,22,9,22,0.00
2013-4-17,79,75,73,76,74,73,100,97,87,29.84,29.63,23,10,24,0.00
2013-4-18,79,70,60,76,66,50,100,89,67,30.02,29.60,29,12,30,0.00
2013-4-19,68,60,54,52,43,33,73,55,32,30.29,30.02,27,9,28,0.00
2013-4-20,68,63,52,58,50,44,83,65,46,30.19,30.01,18,8,18,0.00
2013-4-21,73,69,64,67,62,56,93,79,70,30.09,29.98,21,8,69,0.00
2013-4-22,76,71,68,70,68,66,95,90,78,30.05,29.89,18,10,18,0.00
2013-4-23,79,73,70,73,71,68,100,93,79,29.92,29.80,26,10,29,0.00
2013-4-24,73,59,51,73,55,48,100,87,69,30.17,29.92,30,10,30,0.06
2013-4-25,68,64,61,68,58,51,100,83,64,30.24,30.11,17,8,18,0.21
2013-4-26,76,72,68,74,71,68,100,97,87,30.13,29.99,23,8,24,0.00
2013-4-27,78,74,72,74,72,1,100,95,85,30.05,29.89,19,8,19,0.00
2013-4-28,74,71,66,73,70,66,100,97,91,30.00,29.81,25,7,25,1.12
2013-4-29,75,72,67,74,71,67,100,99,92,29.91,29.75,23,6,23,2.61
2013-4-30,76,72,65,74,70,7,100,95,89,29.80,29.69,20,8,22,0.20
2013-5-1,78,74,72,75,73,12,100,96,88,29.87,29.72,15,8,16,0.00
2013-5-2,78,69,55,74,63,45,99,81,62,30.24,29.77,29,10,29,0.00
2013-5-3,70,61,52,45,35,29,70,41,25,30.28,30.06,32,10,34,0.00
2013-5-4,77,67,54,57,45,35,72,47,23,30.08,29.88,18,7,19,0.00
2013-5-5,75,68,59,64,59,56,91,74,55,30.06,29.92,15,6,17,0.00
2013-5-6,74,70,65,68,62,58,92,76,60,30.09,29.95,15,5,16,0.00
2013-5-7,76,71,66,69,65,61,93,81,68,30.05,29.93,18,6,18,0.00
2013-5-8,78,74,71,72,70,66,95,87,72,29.99,29.88,23,9,23,0.00
2013-5-9,79,76,74,76,74,17,99,94,86,29.92,29.78,19,9,20,0.00
2013-5-10,76,74,71,76,74,70,100,99,94,29.92,29.79,21,8,21,0.03
2013-5-11,80,75,71,73,70,67,100,87,67,30.06,29.89,18,8,19,0.24
2013-5-12,76,72,65,73,66,60,99,81,64,30.14,30.01,17,9,23,0.10
2013-5-13,77,73,68,70,67,63,93,81,72,30.23,30.11,17,7,17,0.00
2013-5-14,80,75,72,74,71,67,93,86,74,30.19,30.03,20,8,21,0.00
2013-5-15,78,76,73,75,74,72,100,94,88,30.08,29.86,27,11,27,0.10
2013-5-16,82,77,74,77,74,72,97,91,82,29.88,29.72,29,12,30,0.00
2013-5-17,86,79,75,77,75,69,97,89,59,29.88,29.76,23,11,27,0.00
2013-5-18,85,79,77,77,75,70,99,88,64,29.90,29.80,26,11,28,0.00
2013-5-19,84,80,77,77,76,73,97,89,73,29.86,29.72,29,13,29,0.00
2013-5-20,84,80,77,78,76,11,97,91,78,29.82,29.70,26,11,26,0.00
2013-5-21,84,80,78,79,77,0,98,91,80,29.78,29.67,23,10,23,0.00
2013-5-22,84,80,78,79,78,76,100,93,80,29.87,29.75,16,7,16,0.00
2013-5-23,84,80,78,80,78,77,99,93,85,29.96,29.83,17,8,19,0.00
2013-5-24,85,81,78,79,77,14,97,90,77,30.05,29.93,23,10,23,0.00
2013-5-25,83,80,79,79,77,76,97,92,87,30.06,29.97,19,10,19,0.04
2013-5-26,84,80,78,77,75,73,93,85,72,30.05,29.94,19,9,20,0.00
2013-5-27,86,81,78,78,76,73,95,85,70,29.99,29.84,26,11,26,0.00
2013-5-28,85,81,79,78,76,75,92,86,78,29.89,29.77,31,13,31,0.00
2013-5-29,84,81,79,79,77,76,93,89,82,29.82,29.70,29,12,29,0.00
2013-5-30,87,82,79,80,78,11,95,88,76,29.81,29.73,26,11,26,0.00
2013-5-31,88,83,80,80,78,77,95,86,73,29.85,29.75,23,10,24,0.00
2013-6-1,89,83,81,80,78,76,93,85,73,29.86,29.76,27,11,27,0.00
2013-6-2,84,82,77,82,78,74,96,89,77,29.98,29.83,19,6,23,0.16
2013-6-3,85,81,77,78,75,8,94,83,72,29.93,29.80,14,6,14,0.00
2013-6-4,85,80,75,77,74,72,97,83,70,29.86,29.78,16,6,16,0.00
2013-6-5,86,82,77,79,77,75,96,85,74,29.84,29.76,17,7,17,0.00
2013-6-6,88,83,78,80,78,5,96,85,70,29.82,29.71,14,5,15,0.00
2013-6-7,85,81,72,80,77,70,98,88,75,29.90,29.79,21,7,23,0.38
2013-6-8,87,81,74,80,77,72,96,87,73,29.89,29.77,18,6,19,0.00
2013-6-9,89,84,81,82,79,75,97,84,71,29.90,29.78,19,9,19,0.02
2013-6-10,87,84,81,81,79,75,95,85,78,29.93,29.88,17,7,19,0.00
2013-6-11,89,84,80,80,78,10,91,81,69,29.99,29.91,18,7,18,0.00
2013-6-12,90,85,80,82,79,73,97,83,61,30.00,29.93,20,8,20,0.05
2013-6-13,88,84,83,82,80,75,93,87,70,30.00,29.88,18,7,18,0.00
2013-6-14,89,84,82,82,80,79,92,88,74,29.94,29.84,18,7,18,0.00
2013-6-15,90,85,82,81,78,74,94,82,62,29.94,29.86,19,8,19,0.00
2013-6-16,90,85,82,81,79,78,92,84,73,29.97,29.89,21,9,21,0.00
2013-6-17,90,85,82,81,79,18,95,83,67,29.94,29.84,21,10,24,0.00
2013-6-18,91,85,80,80,78,74,95,83,62,29.93,29.84,18,8,19,0.00
2013-6-19,90,85,80,80,78,10,94,81,64,29.97,29.87,23,9,23,0.00
2013-6-20,89,84,81,81,79,76,94,85,69,30.01,29.91,22,9,24,0.00
2013-6-21,90,85,81,81,79,74,93,82,63,30.04,29.96,18,9,19,0.00
2013-6-22,91,85,81,81,78,71,95,81,55,30.00,29.89,21,8,23,0.00
2013-6-23,90,84,80,80,77,13,94,81,61,29.95,29.87,24,9,25,0.00
2013-6-24,90,85,82,81,78,75,93,81,66,29.99,29.90,27,11,27,0.00
2013-6-25,89,84,81,80,78,76,93,83,68,29.97,29.88,27,11,28,0.00
2013-6-26,92,85,81,81,79,75,95,84,60,29.94,29.87,24,11,24,0.00
2013-6-27,89,84,80,80,79,76,95,85,69,29.97,29.89,18,8,18,0.00
2013-6-28,91,85,79,81,78,73,96,82,61,29.96,29.80,18,8,18,0.00
2013-6-29,98,87,79,81,76,70,95,73,48,29.84,29.69,17,8,18,0.00
2013-6-30,87,82,74,77,73,70,97,76,58,29.93,29.73,26,7,29,0.57
2013-7-1,89,83,76,80,74,67,94,75,50,29.93,29.81,14,6,14,0.00
2013-7-2,90,84,80,77,70,62,83,64,43,29.99,29.90,14,6,16,0.00
2013-7-3,88,82,76,77,73,68,87,76,56,29.98,29.86,18,6,18,0.00
2013-7-4,86,82,77,78,76,73,95,83,68,29.94,29.86,16,6,16,0.00
2013-7-5,86,83,79,79,77,73,93,82,68,29.92,29.81,18,6,18,0.00
2013-7-6,87,83,80,81,78,75,93,85,75,29.88,29.80,19,7,19,0.00
2013-7-7,89,83,80,80,77,74,95,83,64,29.95,29.84,24,7,24,0.00
2013-7-8,89,84,77,80,78,74,93,84,68,30.07,29.94,19,8,19,0.00
2013-7-9,88,84,81,81,79,76,96,85,71,30.08,29.99,18,7,19,0.00
2013-7-10,89,85,81,81,78,75,94,82,67,30.04,29.91,19,7,19,0.00
2013-7-11,90,85,80,80,77,74,93,80,63,29.97,29.87,19,7,20,0.00
2013-7-12,89,84,80,79,77,10,94,80,61,29.92,29.86,18,7,19,0.00
2013-7-13,90,84,79,80,76,71,95,79,55,29.94,29.84,16,6,16,0.00
2013-7-14,89,84,79,79,77,73,93,80,61,29.89,29.80,19,8,20,0.00
2013-7-15,88,84,80,80,78,23,95,83,71,29.93,29.82,21,9,21,0.07
2013-7-16,86,82,77,80,78,71,94,86,74,30.01,29.90,29,11,29,0.17
2013-7-17,83,78,74,79,76,73,100,94,82,30.11,29.99,16,6,16,1.86
2013-7-18,85,81,76,79,77,74,97,88,75,30.08,29.94,18,6,20,0.13
2013-7-19,88,83,80,80,78,76,93,84,75,30.01,29.88,16,6,18,0.00
2013-7-20,87,84,81,79,78,76,90,82,74,29.94,29.83,16,7,18,0.00
2013-7-21,89,85,82,80,79,77,91,82,70,29.93,29.85,23,9,23,0.00
2013-7-22,90,86,83,80,79,10,87,81,71,29.96,29.87,27,11,27,0.00
2013-7-23,90,85,81,80,78,76,86,80,71,29.97,29.87,25,10,25,0.00
2013-7-24,89,85,81,80,78,76,90,80,70,29.94,29.84,19,9,23,0.00
2013-7-25,90,85,81,81,78,76,91,81,71,29.98,29.92,21,8,23,0.00
2013-7-26,91,85,81,82,78,0,90,82,73,29.99,29.87,23,10,23,0.00
2013-7-27,91,85,81,82,78,76,91,81,65,29.93,29.78,23,9,23,0.00
2013-7-28,90,85,81,80,78,19,92,82,70,29.90,29.82,28,11,28,0.00
2013-7-29,89,84,81,80,78,15,91,83,70,30.01,29.89,24,11,24,0.00
2013-7-30,90,84,81,81,79,77,92,84,69,30.06,29.97,24,10,24,0.00
2013-7-31,89,84,79,80,78,76,92,83,70,30.05,29.93,16,7,18,0.00
2013-8-1,90,85,80,80,78,73,94,81,59,29.99,29.89,16,7,16,0.00
2013-8-2,91,85,30,80,77,8,93,80,58,29.95,29.87,70,7,70,10.69
2013-8-3,91,85,81,81,79,76,92,82,67,29.98,29.91,19,8,21,0.00
2013-8-4,91,86,82,81,79,74,92,81,63,30.01,29.93,20,9,23,0.00
2013-8-5,91,86,82,81,79,75,93,81,63,30.00,29.88,24,10,25,0.00
2013-8-6,93,86,82,81,79,77,93,81,64,29.92,29.82,29,12,31,0.00
2013-8-7,92,87,81,80,79,77,93,78,65,29.89,29.80,23,12,24,0.00
2013-8-8,91,85,81,82,79,20,94,85,71,29.87,29.79,22,9,23,0.00
2013-8-9,89,84,80,82,80,17,96,87,73,29.93,29.84,19,7,19,0.00
2013-8-10,89,86,84,84,81,78,92,87,77,29.97,29.90,19,8,19,0.00
2013-8-11,89,85,81,82,79,6,93,84,67,30.00,29.93,19,6,19,0.00
2013-8-12,90,85,80,81,79,6,95,85,70,30.02,29.93,19,7,21,0.00
2013-8-13,92,86,82,81,79,76,93,81,64,29.99,29.87,19,8,19,0.00
2013-8-14,95,86,81,81,78,6,96,79,51,29.95,29.85,18,7,18,0.00
2013-8-15,89,84,79,82,79,76,95,85,67,29.94,29.86,19,7,19,0.00
2013-8-16,84,84,84,79,79,79,86,86,85,29.93,29.93,5,4,6,0.00
2013-8-27,88,86,84,81,79,75,87,81,68,29.99,29.97,13,8,13,0.01
2013-8-28,89,84,81,81,79,76,92,84,69,30.04,29.95,21,6,21,0.00
2013-8-29,89,85,82,82,79,75,92,81,65,30.03,29.93,18,5,18,0.00
2013-8-30,83,83,83,76,76,75,79,79,78,29.88,29.88,8,4,8,0.00
2013-8-31,88,81,74,78,73,61,91,77,60,29.92,29.80,18,6,18,0.00
2013-9-1,84,77,71,72,70,66,92,79,57,29.88,29.80,18,7,18,0.00
2013-9-2,84,78,73,75,71,62,91,79,64,29.91,29.82,18,7,19,0.00
2013-9-7,77,75,69,72,69,68,98,84,76,29.97,29.86,14,6,14,0.63
2013-9-8,75,72,66,72,68,64,98,88,79,29.94,29.83,19,6,19,1.93
2013-9-9,77,73,68,70,68,64,94,83,70,29.90,29.82,23,10,23,0.14
2013-9-10,76,70,15,100,67,63,98,89,50,29.98,29.88,19,6,24,1.70
2013-9-11,77,74,69,71,69,63,91,84,74,30.00,29.92,19,8,21,0.10
2013-9-12,78,74,15,100,69,64,95,83,50,29.97,29.86,18,8,23,0.19
2013-9-13,77,74,68,70,68,66,96,83,73,29.89,29.76,19,9,21,0.00
2013-9-14,77,74,71,71,68,66,94,83,72,29.85,29.77,21,10,21,0.00
2013-9-15,78,76,73,72,70,68,88,83,77,29.89,29.80,25,14,29,0.12
2013-9-16,77,74,69,72,70,0,97,87,80,29.93,29.84,23,13,26,0.52
2013-9-17,78,75,70,72,71,65,91,86,79,29.95,29.87,23,9,27,0.32
2013-9-18,77,74,69,72,70,65,94,86,81,29.93,29.83,18,8,19,0.19
2013-9-19,78,76,74,73,72,68,92,85,81,29.87,29.77,21,9,21,0.01
2013-9-20,80,75,69,74,71,68,97,90,76,29.80,29.66,26,7,26,0.47
2013-9-21,71,68,7,68,65,13,99,90,18,29.78,29.68,77,9,77,0.34
2013-9-22,76,69,62,62,58,16,87,70,45,29.80,29.70,16,7,16,0.00
2013-9-23,78,72,65,71,66,0,91,82,71,29.77,29.68,13,5,19,0.00
2013-9-24,84,75,67,69,65,60,93,74,47,29.85,29.75,11,4,11,0.00
2013-9-25,81,74,67,71,66,14,93,78,58,29.85,29.75,21,6,21,0.00
2013-9-26,80,74,71,71,68,0,93,83,63,29.84,29.77,18,5,18,0.00
2013-9-27,80,75,73,73,71,68,93,85,75,29.86,29.78,21,9,24,0.00
2013-9-28,80,75,73,72,70,68,93,84,72,29.91,29.81,22,9,23,0.00
2013-9-29,79,72,65,69,67,63,99,87,66,29.97,29.83,19,4,20,3.25
2013-9-30,76,71,67,71,69,18,98,92,78,29.89,29.76,13,4,13,0.00
2013-10-1,80,74,71,72,69,0,96,85,71,29.86,29.77,19,8,79,0.00
2013-10-2,79,74,69,71,68,0,91,83,69,29.89,29.81,18,6,18,0.01
2013-10-3,78,74,69,70,67,19,95,81,64,29.89,29.81,16,6,17,0.01
2013-10-4,78,74,70,70,68,0,93,82,71,29.87,29.81,19,6,19,0.00
2013-10-5,78,73,68,71,68,0,94,86,76,29.89,29.80,16,6,22,0.00
2013-10-6,73,62,52,70,50,41,95,68,36,30.09,29.88,26,9,69,0.01
2013-10-7,75,65,56,53,45,0,69,50,28,30.12,30.00,12,5,12,0.00
2013-10-8,73,66,58,59,54,50,81,66,53,30.05,29.95,13,5,13,0.00
2013-10-9,78,72,65,65,62,0,85,71,56,30.00,29.91,15,6,16,0.00
2013-10-10,80,74,70,69,66,7,86,76,64,29.97,29.85,19,6,19,0.00
2013-10-11,83,78,74,76,73,68,94,86,72,29.88,29.79,23,9,23,0.00
2013-10-12,84,79,76,77,75,0,97,88,70,29.96,29.84,21,8,21,0.00
2013-10-13,82,76,73,76,73,13,97,90,73,30.06,29.93,21,8,22,0.23
2013-10-14,80,77,74,75,71,16,96,84,74,30.01,29.88,19,7,19,0.08
2013-10-15,81,76,73,72,69,66,91,79,64,29.93,29.82,18,6,18,0.00
2013-10-16,76,71,62,73,66,0,95,86,75,30.00,29.84,18,6,18,0.00
2013-10-17,73,67,61,64,60,55,92,79,65,30.05,29.91,17,7,22,0.00
2013-10-18,77,73,69,77,71,20,100,94,77,29.94,29.76,16,6,16,0.71
2013-10-19,73,66,59,73,58,45,100,79,46,30.08,29.84,28,10,28,0.01
2013-10-20,73,66,59,66,58,48,85,77,61,30.04,29.87,14,6,14,0.00
2013-10-21,77,72,66,74,69,65,100,92,81,29.92,29.79,16,5,16,0.86
2013-10-22,75,69,61,70,60,10,100,77,47,30.08,29.91,23,8,23,0.01
2013-10-23,75,67,58,55,51,6,76,58,36,30.14,30.05,11,4,24,0.00
2013-10-24,75,69,62,67,60,22,89,74,59,30.17,30.07,13,5,13,0.00
2013-10-25,76,73,70,70,66,3,90,80,71,30.23,30.13,18,7,19,0.00
2013-10-26,79,75,72,69,67,0,89,77,67,30.15,30.02,20,8,21,0.00
2013-10-27,78,72,70,72,70,1,97,91,75,30.02,29.93,13,4,13,0.00
2013-10-28,79,75,71,73,71,69,98,88,75,30.02,29.94,21,7,21,0.00
2013-10-29,80,76,74,74,72,13,95,87,75,30.04,29.93,23,9,24,0.00
2013-10-30,82,77,76,76,74,72,97,91,77,29.96,29.79,31,11,32,0.00
2013-10-31,83,77,74,77,72,20,100,85,58,29.85,29.74,24,7,26,1.00
2013-11-1,79,75,72,71,67,53,92,76,52,29.99,29.78,23,6,77,0.00
2013-11-2,74,68,62,54,46,21,66,47,28,30.20,29.99,25,12,29,0.00
2013-11-3,71,67,62,58,53,46,76,62,50,30.16,29.98,19,7,69,0.00
2013-11-4,73,70,64,69,64,0,92,81,64,30.00,29.88,13,4,25,0.00
2013-11-5,79,74,70,73,71,18,98,88,78,29.95,29.87,23,8,72,0.00
2013-11-6,83,72,59,74,69,53,99,90,65,30.20,29.92,26,8,28,0.15
2013-11-7,66,60,54,54,44,38,81,58,36,30.36,30.19,26,10,27,7.00
2013-11-8,67,62,55,62,54,44,90,77,57,30.30,30.10,20,8,25,0.00
2013-11-9,72,67,62,68,64,0,97,91,84,30.12,30.05,12,4,25,0.00
2013-11-10,69,67,66,68,63,5,100,87,63,30.22,23.00,72,6,72,0.00
2013-11-11,75,68,65,71,63,21,94,84,74,30.20,30.08,13,6,13,0.00
2013-11-12,70,64,56,66,58,49,97,81,63,30.48,30.14,27,11,29,0.00
2013-11-13,57,51,44,50,38,0,81,63,44,30.56,30.34,28,9,30,0.00
2013-11-14,65,58,51,61,52,3,97,81,59,30.34,29.99,14,5,14,0.00
2013-11-15,71,64,58,68,63,23,100,95,82,29.99,29.85,13,4,14,0.00
2013-11-16,78,73,68,75,72,67,100,97,90,29.88,29.74,21,7,23,0.00
2013-11-17,81,75,71,75,73,4,100,94,78,29.88,29.75,23,8,23,0.00
2013-11-18,76,72,68,76,72,0,100,99,93,30.01,29.88,16,5,17,0.00
2013-11-19,69,68,66,67,64,62,96,89,81,30.03,29.92,18,7,18,0.00
2013-11-20,76,71,67,74,70,66,100,97,92,29.94,29.81,16,7,17,0.00
2013-11-21,80,76,73,76,74,0,100,95,81,29.99,29.87,23,8,23,0.00
2013-11-22,74,58,41,74,58,40,100,100,98,30.28,29.97,33,9,33,0.39
2013-11-23,51,43,40,46,43,40,100,98,91,30.36,30.26,24,10,26,0.00
2013-11-24,51,45,42,51,43,0,100,93,84,30.37,30.21,22,10,23,0.19
2013-11-25,46,43,40,46,42,39,100,98,89,30.24,29.98,22,9,25,0.35
2013-11-26,50,46,42,43,40,17,100,82,61,30.33,30.07,34,10,34,0.07
2013-11-27,52,47,43,39,33,0,75,60,43,30.44,30.32,21,6,23,27.00
2013-11-28,55,51,46,53,44,13,95,78,59,30.40,30.30,13,5,26,0.00
2013-11-29,62,56,50,59,54,49,100,96,88,30.39,30.30,16,6,16,0.00
2013-11-30,68,61,55,62,58,54,99,91,77,30.31,30.15,12,4,12,0.00
2013-12-1,73,66,58,65,61,56,97,87,71,30.17,29.92,16,5,16,0.00
2013-12-2,76,65,59,67,63,58,100,93,70,29.94,29.69,16,6,18,0.00
2013-12-3,80,69,62,69,65,61,99,89,62,29.73,29.61,21,8,21,0.00
2013-12-4,77,71,66,71,69,0,99,93,79,29.77,29.66,23,8,23,0.00
2013-12-5,76,62,42,72,60,15,99,96,85,29.97,29.74,22,9,25,0.00
2013-12-6,46,40,35,40,36,30,97,87,73,30.34,29.96,27,10,27,0.00
2013-12-7,36,34,33,34,31,0,96,89,83,30.40,30.21,21,7,21,0.00
2013-12-8,47,40,34,47,39,33,99,96,90,30.24,30.02,12,5,13,0.00
2013-12-9,52,47,42,52,47,40,100,100,99,30.27,29.98,27,9,27,0.06
2013-12-10,47,42,36,42,33,19,100,73,52,30.44,30.25,26,8,29,0.00
2013-12-11,53,48,45,47,41,0,84,75,64,30.45,30.27,15,5,17,0.00
2013-12-12,55,49,45,45,41,15,82,74,57,30.51,30.26,21,7,21,0.00
2013-12-13,63,54,48,61,49,40,95,84,74,30.30,29.85,11,4,21,0.00
2013-12-14,69,57,47,56,48,39,95,75,37,30.29,29.85,22,7,25,0.00
2013-12-15,57,48,41,44,37,0,89,68,43,30.41,30.27,17,5,18,0.00
2013-12-16,59,50,40,52,44,35,96,82,57,30.32,30.20,11,4,52,0.00
2013-12-17,61,54,46,56,52,46,100,94,82,30.30,30.20,10,4,20,0.00
2013-12-18,64,59,53,59,56,0,98,89,80,30.26,30.02,14,4,14,0.00
2013-12-19,74,68,63,67,64,21,96,88,75,30.05,29.79,30,11,32,0.00
2013-12-20,98,70,66,71,68,0,99,94,82,29.82,29.59,35,13,70,0.06
2013-12-21,78,70,62,71,66,58,97,88,65,29.78,29.54,34,9,97,0.00
2013-12-22,71,62,49,60,52,38,94,72,34,30.29,29.77,28,9,28,0.00
2013-12-23,57,49,41,42,35,0,77,61,38,30.49,30.28,25,7,26,0.00
2013-12-24,58,53,47,55,47,38,92,79,63,30.49,30.21,17,6,57,0.00
2013-12-25,63,57,52,59,55,13,100,94,81,30.28,30.17,15,5,15,0.00
2013-12-26,57,54,52,57,52,48,100,93,82,30.34,30.24,19,10,96,0.06
2013-12-27,55,53,51,53,51,49,100,94,86,30.37,30.25,16,7,26,0.12
2013-12-28,59,53,50,51,44,12,93,73,43,30.27,30.01,12,4,12,0.00
2013-12-29,60,55,47,57,49,40,93,82,59,30.09,29.97,19,4,21,0.00
2013-12-30,58,45,41,55,39,34,90,81,70,30.36,30.05,26,9,26,0.01
2013-12-31,48,45,43,46,39,34,92,81,71,30.41,30.21,16,6,18,0.02
2014-1-1,58,51,46,57,50,44,100,95,90,30.23,29.98,8,3,91,0.00
2014-1-2,58,52,45,58,41,26,100,70,46,30.42,30.02,28,9,29,0.00